Location: Ab? ar R?sh Ba?r?
(24.1861°N, 32.8847°E)
Time: 11:29:45
(UTC+00:00)

Milstar 3 Cent rocket - Visible Passes

Search period start: 28 May 2022 00:00
Search period end: 07 June 2022 00:00
Orbit: 707 x 5146 km, 28.3° (Epoch: 27 May)

Date Brightness Start Highest point End Pass type
(mag) Time Alt. Az. Time Alt. Az. Time Alt. Az.
28 May 4.9 16:21:09 10° WNW 16:47:56 87° NNE 16:59:39 10° ESE visible
28 May 4.1 19:14:16 10° WNW 19:28:28 42° SW 19:29:15 41° SSW visible
29 May 4.5 17:17:22 10° WNW 17:40:41 78° SSW 17:48:46 21° ESE visible
29 May 5.0 20:10:21 10° W 20:17:36 21° WSW 20:17:36 21° WSW visible
30 May 4.1 18:13:18 10° WNW 18:32:32 55° SW 18:37:07 35° SSE visible
31 May 4.5 19:09:24 10° W 19:23:35 33° SW 19:25:30 31° SSW visible
01 Jun 4.7 17:11:34 10° WNW 17:35:55 68° SSW 17:45:02 19° SE visible
01 Jun 5.3 20:06:59 10° W 20:13:52 16° SW 20:13:52 16° SW visible
02 Jun 4.5 18:07:51 10° WNW 18:27:34 46° SW 18:33:25 28° SSE visible
03 Jun 4.9 19:04:51 10° W 19:18:29 27° SW 19:21:48 23° SSW visible
04 Jun 5.0 17:05:47 10° WNW 17:30:52 58° SW 17:41:21 15° SE visible
04 Jun 5.6 20:05:13 10° WSW 20:09:06 12° SW 20:10:11 11° SW visible
05 Jun 4.9 18:02:35 10° WNW 18:22:20 38° SW 18:29:45 21° S visible
06 Jun 5.3 19:00:51 10° W 19:13:14 21° SW 19:18:10 17° SSW visible
